Wetbulb
54.17 55.54 58.24 59.51 60.81 60.55 60.90 61.13 64.63 67.03 68.42 68.86 67.81 65.76 64.52 65.52 66.57 66.89 67.66 66.36 64.78 64.54 63.92 63.30 63.30 61.60 60.27 60.36 60.57 63.49 63.58 63.52
54.43 58.38 60.53 61.57 62.50 62.39 63.14 63.42 65.08 66.51 66.02 65.55 63.68 62.38 62.17 62.81 64.25 65.19 64.22 65.58 64.74 63.80 63.27 62.67 61.59 60.51 60.05 60.82 60.78 63.10 62.13 63.19
56.15 58.49 59.96 60.92 62.57 63.21 63.81 64.38 65.61 66.34 65.03 64.85 64.48 63.70 63.56 63.59 62.87 64.20 63.52 64.13 64.87 63.67 63.20 62.00 61.06 60.06 59.64 59.85 60.45 61.56 61.99 63.28
56.07 57.77 59.19 60.56 61.80 63.35 63.60 64.62 65.28 65.41 66.14 64.26 65.06 64.18 63.92 61.61 62.11 62.10 63.09 65.02 65.42 64.39 63.21 61.49 60.40 60.01 58.39 58.83 60.10 59.66 60.34 61.73
56.25 57.09 58.16 59.29 62.01 63.95 64.18 64.57 64.52 62.96 64.53 63.44 64.31 63.47 62.56 63.55 63.46 63.79 64.41 65.09 64.51 62.96 62.15 61.65 60.23 59.96 59.03 58.45 59.49 60.50 62.80 60.40
54.73 55.88 57.60 58.86 61.32 63.30 64.17 64.15 62.38 62.52 63.44 65.41 65.10 64.92 64.68 64.61 62.41 63.09 63.88 62.15 62.27 63.00 61.63 59.62 59.75 59.37 59.36 58.90 59.31 62.54 62.99 61.64
54.78 56.33 57.74 58.37 60.13 61.74 61.89 61.72 61.48 61.82 62.76 64.79 64.93 65.16 63.93 63.56 62.70 63.26 63.31 60.50 60.12 60.25 58.90 58.37 57.99 58.25 58.20 58.35 58.91 61.48 62.50 62.79
54.40 55.24 56.45 57.80 59.15 59.89 60.44 59.15 59.64 60.17 60.81 62.83 63.96 63.84 63.72 62.72 62.98 62.84 62.52 60.73 58.86 58.18 58.31 56.96 56.72 57.02 57.35 58.30 58.31 61.90 62.02 62.47
53.71 55.33 56.91 57.91 59.10 61.25 60.84 60.41 58.76 59.61 59.78 60.85 62.61 63.44 62.44 62.32 63.20 62.91 62.30 61.31 60.69 60.00 58.58 57.47 55.92 55.88 56.59 57.03 57.86 60.81 62.49 62.99
53.35 54.35 56.42 57.31 57.82 59.17 61.36 60.57 60.28 59.32 59.08 60.10 61.11 62.27 63.86 63.15 63.70 63.78 64.04 62.41 61.49 61.57 60.69 58.67 57.46 55.86 55.50 56.72 58.01 59.21 60.26 62.48
52.66 53.82 55.25 56.13 56.84 57.26 56.54 61.31 59.63 59.36 58.97 59.73 62.01 62.72 63.84 63.88 63.22 63.76 63.77 62.32 62.15 61.11 60.09 59.73 58.66 58.06 56.63 56.47 57.12 58.26 59.21 59.65
52.08 53.69 54.39 55.33 56.68 56.84 55.47 56.69 58.42 58.31 58.95 59.08 61.63 61.82 62.49 63.18 60.95 61.23 61.77 61.15 60.69 60.35 60.63 59.93 59.27 58.59 58.62 57.43 56.43 57.27 58.67 59.36
51.91 52.94 54.14 54.70 55.23 55.64 55.04 52.07 57.53 58.12 58.84 59.10 60.53 61.90 62.14 62.25 61.19 61.54 61.60 60.59 62.57 62.28 60.93 60.45 59.79 57.83 57.98 57.62 56.58 57.99 59.67 59.00
51.24 52.69 53.32 53.57 53.98 54.28 54.00 51.60 51.37 57.83 58.47 58.99 59.48 61.09 60.80 60.56 60.46 61.13 60.24 59.80 60.11 60.02 60.30 59.91 59.70 59.51 58.28 57.93 57.40 56.34 56.47 56.48
50.49 52.31 53.61 53.74 53.29 52.82 52.65 49.29 49.85 56.79 57.65 58.20 58.86 59.86 59.75 59.98 61.22 59.92 59.51 59.34 59.42 58.76 59.30 59.26 58.92 58.58 59.05 58.31 57.71 56.51 55.77 55.40
50.35 52.22 53.58 53.36 51.79 51.16 49.71 48.20 49.27 52.89 56.46 57.43 58.19 59.19 60.47 60.75 60.96 59.16 59.33 59.43 58.63 58.40 58.72 58.33 56.82 57.28 57.34 57.62 56.96 55.94 54.36 48.53
51.09 51.36 51.12 49.97 49.24 47.46 45.98 47.04 47.65 48.68 55.94 56.38 58.47 59.07 59.31 59.93 60.13 58.80 58.38 57.81 57.48 57.11 57.13 54.04 50.87 46.53 40.85 42.66 45.80 43.84 40.66 38.14
48.98 48.88 48.51 48.63 48.85 46.53 44.31 45.31 47.04 47.89 53.06 56.61 57.95 58.87 58.71 59.54 58.96 58.25 56.91 55.06 52.33 47.90 46.38 45.16 42.22 40.89 38.89 39.22 38.73 38.62 36.78 35.67
47.19 47.16 46.73 47.31 47.38 47.25 44.13 44.30 45.84 47.83 49.94 55.98 57.28 57.89 57.66 58.81 57.77 56.21 51.18 48.90 46.17 42.53 39.89 39.82 38.33 37.37 36.56 35.93 35.23 34.35 33.29 32.89
MSLP
1002.16 1002.47 1002.64 1002.86 1002.96 1002.89 1002.93 1003.02 1003.24 1004.08 1004.88 1005.43 1006.24 1006.94 1007.66 1008.34 1008.60 1008.90 1009.30 1010.17 1010.87 1011.25 1011.86 1012.58 1013.14 1014.08 1014.58 1015.29 1015.64 1015.74 1016.07 1016.18
1002.24 1002.26 1002.58 1002.81 1002.64 1002.30 1002.28 1002.31 1002.63 1003.48 1004.11 1004.73 1005.67 1006.23 1007.09 1007.90 1008.35 1008.61 1009.06 1009.54 1010.24 1010.72 1011.29 1011.93 1012.56 1013.26 1013.77 1014.27 1014.79 1014.97 1015.34 1016.04
1002.12 1002.28 1002.28 1002.31 1002.14 1002.09 1002.08 1001.98 1002.34 1002.86 1003.59 1004.43 1005.31 1005.98 1006.48 1007.20 1007.96 1008.27 1008.54 1009.10 1009.52 1010.18 1010.62 1011.27 1011.68 1012.46 1013.02 1013.55 1014.10 1014.19 1014.75 1015.48
1002.30 1002.37 1002.35 1002.34 1001.98 1001.81 1001.87 1001.68 1001.99 1002.72 1002.96 1004.13 1004.48 1005.37 1006.05 1006.92 1007.21 1007.55 1007.88 1008.24 1008.45 1009.19 1009.98 1010.52 1010.59 1011.48 1012.29 1012.84 1013.41 1013.70 1014.04 1015.08
1002.57 1002.45 1002.29 1002.14 1002.03 1001.91 1001.73 1001.53 1001.74 1002.97 1003.02 1003.57 1003.68 1004.06 1004.37 1005.12 1005.72 1006.52 1007.21 1007.68 1008.18 1008.68 1009.34 1009.83 1009.94 1010.41 1011.42 1012.10 1012.91 1013.27 1013.36 1014.08
1002.65 1002.44 1002.24 1001.96 1001.91 1001.92 1001.70 1001.58 1002.17 1002.80 1002.99 1002.85 1003.27 1003.61 1004.06 1004.87 1005.55 1005.95 1006.66 1007.36 1007.83 1008.10 1008.77 1009.20 1009.45 1009.99 1010.73 1011.59 1012.33 1012.71 1013.13 1013.50
1002.75 1002.40 1002.16 1001.73 1001.80 1002.04 1002.25 1002.02 1002.38 1002.86 1003.03 1002.89 1003.02 1003.35 1004.00 1004.78 1005.14 1005.57 1006.26 1006.95 1007.54 1007.97 1008.47 1008.85 1009.21 1009.66 1010.35 1011.32 1011.70 1012.21 1012.71 1013.08
1002.68 1002.35 1002.06 1001.83 1001.76 1001.65 1001.86 1002.41 1002.55 1003.02 1003.21 1003.03 1003.02 1003.22 1003.73 1004.34 1004.61 1005.30 1005.71 1006.43 1007.09 1007.84 1008.40 1008.93 1009.41 1009.76 1010.12 1010.85 1011.35 1011.99 1012.58 1012.81
1002.47 1002.30 1002.19 1002.00 1001.84 1001.37 1001.16 1001.66 1002.59 1002.86 1003.16 1002.99 1002.98 1003.02 1003.45 1003.98 1004.13 1004.68 1005.27 1005.82 1006.49 1007.47 1008.17 1008.77 1009.37 1009.80 1010.16 1010.80 1011.22 1011.64 1012.18 1012.61
1002.38 1002.38 1002.29 1002.13 1001.95 1001.78 1001.33 1001.37 1002.05 1002.55 1002.85 1002.88 1002.88 1003.09 1002.92 1003.09 1003.48 1004.33 1004.80 1005.51 1006.17 1006.93 1007.65 1008.27 1009.01 1009.71 1010.03 1010.45 1011.01 1011.47 1011.95 1012.40
1002.24 1002.15 1001.94 1001.68 1001.76 1001.98 1002.34 1001.61 1001.95 1002.17 1002.47 1002.67 1002.34 1002.48 1002.34 1002.89 1003.27 1003.87 1004.58 1005.23 1005.94 1006.59 1007.02 1007.60 1008.36 1009.10 1009.86 1010.14 1010.65 1011.26 1011.66 1012.07
1002.01 1001.96 1001.74 1001.54 1001.61 1001.90 1002.07 1002.21 1002.09 1002.03 1002.21 1002.42 1001.98 1002.06 1002.36 1002.90 1003.41 1003.86 1004.47 1005.01 1005.70 1006.16 1006.54 1007.16 1007.52 1008.23 1008.98 1009.75 1010.37 1010.68 1011.21 1011.66
1001.86 1001.77 1001.69 1001.64 1001.80 1001.96 1001.99 1002.37 1001.96 1001.81 1001.85 1001.96 1001.82 1001.93 1002.03 1002.58 1002.95 1003.32 1004.07 1004.39 1004.83 1005.49 1006.15 1006.67 1006.91 1007.64 1008.13 1008.68 1009.58 1009.96 1010.24 1010.96
1001.47 1001.55 1001.71 1001.98 1002.07 1002.21 1002.21 1002.21 1002.37 1001.45 1001.48 1001.61 1001.65 1001.68 1001.90 1002.40 1002.68 1003.15 1004.00 1004.46 1004.98 1005.44 1005.79 1006.13 1006.58 1007.14 1007.66 1007.62 1008.40 1009.17 1009.73 1010.31
1001.17 1001.43 1001.71 1002.07 1002.16 1002.31 1002.34 1002.32 1002.25 1001.36 1001.15 1001.25 1001.24 1001.33 1001.56 1002.00 1002.39 1003.12 1003.76 1004.30 1004.89 1005.35 1005.56 1005.91 1006.26 1006.48 1006.56 1006.86 1007.22 1008.35 1009.27 1009.84
1001.14 1001.33 1001.83 1002.33 1002.72 1002.55 1002.45 1002.41 1002.37 1001.87 1000.95 1000.97 1000.92 1001.00 1001.37 1001.79 1002.33 1002.92 1003.51 1004.12 1004.83 1005.20 1005.43 1005.71 1006.02 1006.11 1006.05 1006.06 1006.81 1007.63 1008.92 1010.34
1001.73 1002.03 1002.53 1002.91 1003.24 1003.15 1002.95 1002.39 1002.29 1002.19 1000.79 1000.72 1000.58 1000.74 1001.17 1001.61 1002.21 1002.92 1003.65 1004.23 1004.81 1005.26 1005.59 1006.10 1006.37 1006.77 1006.59 1006.77 1007.69 1008.79 1010.13 1011.54
1002.80 1003.11 1003.29 1003.47 1003.55 1003.46 1003.47 1002.66 1002.84 1002.21 1001.06 1000.33 1000.21 1000.43 1000.75 1001.47 1002.11 1002.98 1003.81 1004.54 1005.21 1005.92 1006.47 1007.01 1007.56 1008.14 1007.88 1008.23 1009.01 1010.29 1011.38 1012.44
1003.72 1003.96 1004.08 1004.04 1003.97 1003.62 1003.73 1002.93 1002.68 1001.96 1001.14 1000.08 999.99 1000.14 1000.69 1001.39 1002.13 1003.14 1004.17 1005.03 1005.93 1006.76 1007.51 1008.11 1008.59 1009.49 1008.92 1009.57 1010.34 1011.47 1012.69 1014.07
Wind_Speed
6 8 9 9 10 13 14 13 14 15 13 13 10 10 11 10 8 11 15 11 14 12 10 12 13 11 11 11 14 14 15 13
7 7 8 10 10 10 11 12 12 12 11 12 10 11 10 10 11 14 11 12 13 13 10 11 14 14 14 16 14 17 14 13
8 11 12 11 13 11 10 10 12 14 10 10 9 10 9 10 9 12 12 15 14 13 12 11 16 13 16 17 17 13 14 14
8 11 11 11 13 11 10 9 10 13 15 10 10 11 8 7 9 8 11 16 16 13 12 9 16 15 13 16 17 18 15 14
7 10 11 12 13 10 8 7 8 12 15 14 18 13 11 9 11 9 10 14 13 12 13 14 14 13 16 16 15 15 17 16
8 10 11 11 12 11 8 6 6 12 12 16 14 13 8 7 6 12 12 9 11 12 11 11 16 14 17 18 17 17 14 14
9 10 10 12 12 8 9 6 7 9 11 15 16 13 10 8 9 9 9 7 7 9 9 10 11 12 15 15 15 19 15 14
10 13 13 13 15 12 5 6 8 9 10 14 14 12 11 12 10 9 11 8 8 8 10 10 8 10 13 14 16 17 16 14
11 12 12 14 15 15 12 7 10 10 10 11 13 13 9 9 10 9 8 7 9 14 11 12 10 10 12 12 12 13 15 14
10 11 10 12 14 18 14 7 8 11 11 10 13 13 14 12 11 11 10 10 6 13 13 12 14 13 12 13 11 13 13 14
9 9 10 12 12 11 17 9 8 11 12 10 13 14 14 11 9 11 10 8 9 9 12 13 14 15 14 13 10 13 14 12
8 8 11 13 11 12 11 12 9 10 12 11 13 13 14 13 11 10 10 9 7 6 10 11 13 14 16 15 14 15 17 16
7 7 9 11 12 12 14 12 10 9 11 11 11 11 14 13 12 12 9 8 9 11 11 10 10 16 16 17 17 16 20 19
8 8 8 9 10 13 13 12 15 9 11 11 10 11 13 13 12 11 8 7 6 6 7 7 8 10 12 17 19 18 17 17
9 9 8 8 9 10 12 10 12 9 9 10 10 11 12 12 12 11 9 8 7 7 6 7 6 8 10 17 19 18 17 16
8 7 9 10 12 11 10 9 11 13 10 10 11 10 11 12 12 10 8 7 6 6 6 5 3 2 3 13 13 14 11 8
7 8 10 11 12 12 11 9 11 14 10 11 12 12 12 14 13 11 10 8 7 6 6 6 7 5 11 16 14 13 15 14
8 10 10 12 12 11 12 11 12 13 11 10 12 14 13 14 13 12 10 9 8 7 8 8 10 10 21 22 21 13 13 14
8 9 11 12 13 13 13 11 12 11 12 10 12 14 12 14 13 12 9 9 9 8 8 9 12 9 25 27 26 18 16 16
Wind_Direction
297 297 327 304 291 275 262 254 234 216 215 203 187 188 184 186 195 209 212 194 198 200 194 186 177 175 168 172 181 188 184 176
294 341 337 326 303 287 269 248 216 202 198 196 180 187 177 191 197 204 199 207 192 195 193 180 180 178 176 179 181 186 183 174
340 339 335 333 325 301 277 235 209 205 189 189 189 187 191 189 190 193 191 205 201 201 202 194 190 181 177 178 178 181 180 176
345 347 348 335 328 316 270 235 201 216 200 190 192 179 162 183 193 193 201 210 214 210 213 207 186 177 169 174 177 181 170 174
359 342 351 348 352 332 281 246 195 212 207 187 195 187 185 197 193 182 198 211 209 216 220 209 181 170 173 170 181 181 174 176
347 349 343 356 5 348 323 278 204 214 206 202 199 203 198 180 175 182 195 179 201 222 198 184 186 178 170 174 178 185 181 176
353 358 346 356 359 3 332 305 236 213 217 213 202 201 195 187 182 186 185 162 159 169 158 162 167 174 170 177 174 185 182 184
1 3 355 350 350 344 338 285 242 199 219 207 206 199 196 195 194 196 184 168 161 164 164 161 170 167 169 173 176 185 183 186
9 7 357 355 350 344 326 258 239 209 209 204 205 192 190 200 192 198 197 171 173 168 172 164 164 168 164 179 176 188 189 193
2 357 1 357 0 354 339 284 250 218 207 201 195 198 201 199 183 206 180 185 189 176 177 173 169 172 167 176 179 186 191 192
347 346 352 350 356 7 352 320 283 234 208 212 201 202 201 195 187 192 186 175 172 188 181 179 175 171 178 177 182 192 191 194
337 336 343 343 347 353 5 330 267 241 212 212 215 202 201 193 182 182 185 173 177 185 185 191 186 182 181 180 187 189 198 194
317 326 343 349 350 352 1 357 267 233 213 212 216 201 202 194 188 176 178 202 203 203 198 200 192 184 184 187 191 195 196 197
300 315 339 355 356 346 348 346 335 227 208 207 209 195 198 194 185 173 164 169 201 215 219 224 211 199 196 194 194 192 191 189
295 291 310 336 351 354 349 344 336 252 203 204 203 202 201 194 181 160 158 165 183 191 203 210 213 217 217 206 194 190 189 184
285 310 316 335 344 344 349 343 336 307 197 198 205 197 195 187 174 154 154 160 164 170 170 165 149 177 215 189 185 177 171 130
320 331 329 330 332 338 333 343 330 315 216 201 207 190 193 186 168 154 156 151 145 141 120 98 75 55 88 100 113 109 104 105
328 332 338 329 330 339 326 336 313 300 285 200 198 189 186 185 168 158 148 128 112 83 76 81 77 81 89 90 96 94 101 99
347 344 341 336 334 340 329 332 309 300 288 208 187 186 185 186 170 146 118 110 108 98 86 88 91 86 103 97 93 92 84 81